[[{"header":{"parameterUnit":"m.s-1","parameterCategory":1,"la1":30.2991,"la2":30.254,"lo1":-89.0895,"lo2":-89.0444,"dy":0.0017,"dx":0.0017,"nx":28,"ny":28,"refTime":"2024-08-09T21:00:00:Z","depth":0,"parameterNumber":2,"parameterNumberName":"U-component_of_WINDS"},"data":[0,0,0,0,0,0,0,0,0,0,0,0,0,0,0,0,0,0,0,0,0,0,0,0,0,0,0,0,0,0,0,0,0,0,0,0,0,0,0,0,0,0,0,0,0,0,0,0,0,0,0,0,0,0,0,0,0,0,-0.3366,-0.3365,0,-0.3277,-0.3276,-0.3275,-0.3172,-0.3171,-0.3169,-0.3168,-0.3076,-0.3075,-0.3074,0,0,0,0,0,0,0,0,0,0,0,0,0,-0.3445,-0.3444,-0.3366,-0.3365,-0.3364,-0.3278,-0.3276,-0.3275,-0.3172,-0.3171,-0.3169,-0.3167,-0.3076,-0.3075,-0.3074,0,0,0,0,0,0,0,0,0,0,0,0,0,-0.3389,-0.3444,-0.3366,-0.3302,-0.3295,-0.3278,-0.3276,-0.3275,-0.3173,-0.317,-0.3168,-0.3166,-0.3077,-0.3075,-0.3074,-0.3112,0,0,-0.3069,-0.3069,0,0,0,0,0,0,0,0,-0.3392,-0.3386,-0.3313,-0.3306,-0.3299,-0.3233,-0.327,-0.322,-0.3173,-0.3219,-0.3168,-0.3165,-0.313,-0.3124,-0.3113,-0.3107,-0.3104,-0.3069,-0.3068,-0.3068,-0.3067,0,0,0,0,0,0,0,-0.3396,-0.3389,-0.3331,-0.3312,-0.3303,-0.3277,-0.3267,-0.326,-0.3189,-0.3215,-0.3207,-0.3198,-0.3126,-0.3114,-0.311,-0.3102,-0.3069,-0.3068,-0.3067,-0.3067,-0.3124,-0.3127,0,0,0,0,0,0,-0.341,-0.3393,-0.3334,-0.3328,-0.3341,-0.3278,-0.3266,-0.3257,-0.3189,-0.3176,-0.3201,-0.3194,-0.3118,-0.3112,-0.3106,-0.3147,-0.3068,-0.3066,-0.3066,-0.3122,-0.3125,-0.3127,0,0,0,0,0,0,-0.3412,-0.3406,-0.3337,-0.3359,-0.3348,-0.3279,-0.3269,-0.3256,-0.3245,-0.3178,-0.3164,-0.3202,-0.3116,-0.3108,-0.3111,-0.3142,-0.3066,-0.3064,-0.3119,-0.3123,-0.3126,-0.3229,0,0,0,0,0,0,-0.3415,-0.3407,-0.3421,-0.336,-0.3347,-0.3345,-0.3271,-0.3256,-0.3242,-0.3233,-0.3176,-0.3164,-0.3114,-0.3114,-0.311,-0.3139,-0.3063,-0.3116,-0.3121,-0.3125,-0.3222,-0.3236,-0.3247,0,0,0,0,0,-0.3418,-0.3453,-0.3422,-0.3415,-0.3363,-0.3346,-0.3339,-0.3281,-0.3245,-0.3259,-0.3216,-0.3166,-0.3139,-0.3115,-0.311,-0.3139,-0.3114,-0.3119,-0.3125,-0.3217,-0.3233,-0.3247,0,0,0,0,0,0,-0.3519,-0.3444,-0.3409,-0.3425,-0.3393,-0.3329,-0.3344,-0.33,-0.3277,-0.3269,-0.3197,-0.3185,-0.3197,-0.3168,-0.3142,-0.3172,-0.3119,-0.3124,-0.3192,-0.3206,-0.3218,-0.3226,-0.3062,0,0,0,0,0,-0.3544,-0.3537,-0.3471,-0.3491,-0.3477,-0.3414,-0.3404,-0.3362,-0.3326,-0.3312,-0.3269,-0.3236,-0.322,-0.3211,-0.3192,-0.3217,-0.3204,-0.3234,-0.3246,-0.3257,-0.3262,-0.3274,-0.3287,-0.3145,-0.3145,-0.3145,0,0,-0.3594,-0.3551,-0.3551,-0.3511,-0.3481,-0.3475,-0.3403,-0.34,-0.3395,-0.3311,-0.3312,-0.328,-0.3237,-0.3252,-0.3256,-0.3228,-0.3298,-0.3264,-0.3273,-0.3272,-0.3281,-0.3295,-0.3307,-0.3149,-0.3148,-0.3148,0,0,-0.3682,-0.3649,-0.3664,-0.3635,-0.3591,-0.3549,-0.3553,-0.3495,-0.3471,-0.347,-0.3408,-0.34,-0.3374,-0.3347,-0.333,-0.3409,-0.3362,-0.3405,-0.3469,-0.3482,-0.3493,-0.3503,-0.3532,-0.3543,-0.341,-0.341,-0.341,0,-0.375,-0.374,-0.3677,-0.3678,-0.3662,-0.3586,-0.36,-0.3575,-0.3528,-0.3519,-0.3487,-0.3454,-0.342,-0.3428,-0.3447,-0.3435,-0.3437,-0.3412,-0.3496,-0.3505,-0.3513,-0.3541,-0.3552,-0.3416,-0.3415,-0.3415,-0.3414,0,-0.3826,-0.382,-0.3836,-0.3793,-0.3779,-0.3787,-0.3725,-0.3718,-0.3677,-0.3638,-0.3639,-0.3595,-0.3567,-0.3566,-0.3525,-0.3568,-0.3552,-0.351,-0.3455,-0.3534,-0.3558,-0.3568,-0.3424,-0.3422,-0.342,-0.3419,0,0,-0.3978,-0.3899,-0.3907,-0.3886,-0.3832,-0.3826,-0.383,-0.3803,-0.3799,-0.3768,-0.3771,-0.375,-0.3711,-0.3692,-0.3648,-0.3658,-0.3725,-0.3614,-0.3612,-0.3638,-0.3771,-0.3805,-0.3818,-0.3693,-0.3695,-0.3696,-0.3775,0,-0.4058,-0.4061,-0.4005,-0.4024,-0.4017,-0.3945,-0.3948,-0.3916,-0.3879,-0.3868,-0.3827,-0.3815,-0.3763,-0.3751,-0.3758,-0.3716,-0.3752,-0.3709,-0.3696,-0.3696,-0.3711,-0.383,-0.3866,-0.3942,-0.3784,-0.3786,-0.3787,0,-0.4152,-0.4128,-0.4147,-0.4092,-0.4088,-0.4092,-0.4063,-0.4053,-0.4015,-0.3987,-0.3966,-0.3916,-0.3916,-0.3864,-0.3863,-0.3836,-0.3827,-0.3805,-0.3806,-0.3804,-0.3748,-0.3833,-0.3965,-0.3978,-0.3801,-0.38,-0.3799,0,-0.4263,-0.4235,-0.4242,-0.4227,-0.4163,-0.4168,-0.4142,-0.4101,-0.4089,-0.4063,-0.4054,-0.4029,-0.4016,-0.3997,-0.3942,-0.3908,-0.3948,-0.3891,-0.3926,-0.3928,-0.394,-0.394,-0.4074,-0.3931,-0.3931,-0.3931,-0.393,0,-0.436,-0.4375,-0.4292,-0.4297,-0.4311,-0.4245,-0.4261,-0.4227,-0.4192,-0.4189,-0.4123,-0.4122,-0.4048,-0.4038,-0.3995,-0.4002,-0.3996,-0.3974,-0.3963,-0.3981,-0.3984,-0.3976,-0.397,-0.3934,-0.3933,-0.3932,-0.3932,0,-0.4487,-0.4432,-0.4436,-0.4375,-0.436,-0.4374,-0.4321,-0.4324,-0.4283,-0.428,-0.4276,-0.4212,-0.4197,-0.414,-0.4111,-0.4081,-0.4104,-0.408,-0.4117,-0.411,-0.415,-0.4148,-0.4284,-0.4299,-0.4146,-0.4147,-0.4149,0,-0.4553,-0.4563,-0.4504,-0.4497,-0.4474,-0.4465,-0.4452,-0.4387,-0.4377,-0.4333,-0.4341,-0.4321,-0.4302,-0.4282,-0.4233,-0.4211,-0.4188,-0.4237,-0.4184,-0.4203,-0.419,-0.4191,-0.4193,-0.4249,-0.4251,-0.4253,-0.4254,0,-0.4678,-0.465,-0.4634,-0.461,-0.4596,-0.4573,-0.4547,-0.4545,-0.4473,-0.4464,-0.4449,-0.4434,-0.4405,-0.4387,-0.4357,-0.4329,-0.428,-0.4271,-0.4278,-0.4298,-0.432,-0.4311,-0.415,-0.4268,-0.4267,-0.4266,-0.4265,-0.4264,-0.4777,-0.4783,-0.4742,-0.4727,-0.47,-0.4677,-0.4677,-0.4636,-0.4622,-0.4594,-0.4556,-0.4546,-0.4507,-0.4461,-0.4437,-0.4429,-0.4401,-0.4411,-0.4414,-0.4419,-0.4428,-0.432,-0.4423,-0.4422,-0.4422,-0.4421,-0.4421,0,-0.49,-0.487,-0.4857,-0.4822,-0.481,-0.4764,-0.4733,-0.4726,-0.4718,-0.4686,-0.4669,-0.4651,-0.4633,-0.4583,-0.456,-0.4563,-0.454,-0.4559,-0.4559,-0.4554,-0.4453,-0.445,-0.4578,-0.4578,-0.4578,-0.4578,-0.4578,-0.4578,-0.4962,-0.497,-0.4938,-0.4931,-0.4901,-0.4891,-0.4877,-0.4855,-0.4829,-0.4813,-0.4798,-0.4765,-0.4726,-0.47,-0.4681,-0.4667,-0.4662,-0.4689,-0.4668,-0.4575,-0.4561,-0.4546,-0.4543,-0.4688,-0.4688,-0.4769,-0.477,-0.477]},{"header":{"parameterUnit":"m.s-1","parameterCategory":1,"la1":30.2991,"la2":30.254,"lo1":-89.0895,"lo2":-89.0444,"dy":0.0017,"dx":0.0017,"nx":28,"ny":28,"refTime":"2024-08-09T21:00:00:Z","depth":0,"parameterNumber":3,"parameterNumberName":"V-component_of_WINDS"},"data":[0,0,0,0,0,0,0,0,0,0,0,0,0,0,0,0,0,0,0,0,0,0,0,0,0,0,0,0,0,0,0,0,0,0,0,0,0,0,0,0,0,0,0,0,0,0,0,0,0,0,0,0,0,0,0,0,0,0,0.1589,0.1589,0,0.1606,0.1606,0.1606,0.1598,0.1598,0.1597,0.1597,0.1614,0.1615,0.1616,0,0,0,0,0,0,0,0,0,0,0,0,0,0.155,0.155,0.1589,0.1589,0.1589,0.1606,0.1606,0.1606,0.1598,0.1598,0.1597,0.1597,0.1614,0.1615,0.1616,0,0,0,0,0,0,0,0,0,0,0,0,0,0.1567,0.1551,0.1589,0.1587,0.1587,0.1605,0.1606,0.1606,0.1598,0.1598,0.1597,0.1596,0.1614,0.1615,0.1616,0.1637,0,0,0.162,0.1621,0,0,0,0,0,0,0,0,0.1566,0.1568,0.1587,0.1587,0.1587,0.1599,0.1598,0.1616,0.1598,0.1594,0.1597,0.1596,0.161,0.1611,0.1616,0.1638,0.1638,0.162,0.1621,0.1622,0.1622,0,0,0,0,0,0,0,0.1564,0.1567,0.1595,0.1588,0.1588,0.1586,0.1587,0.1602,0.1605,0.1594,0.1594,0.1596,0.161,0.1615,0.1616,0.1639,0.162,0.1621,0.1622,0.1623,0.1676,0.1677,0,0,0,0,0,0,0.1563,0.1566,0.1595,0.1596,0.1575,0.1587,0.1589,0.1596,0.1605,0.1606,0.1596,0.1595,0.1613,0.1615,0.1617,0.164,0.1622,0.1623,0.1623,0.1676,0.1676,0.1677,0,0,0,0,0,0,0.1563,0.1566,0.1594,0.1581,0.1584,0.1588,0.1596,0.1597,0.1602,0.1607,0.1607,0.1601,0.1612,0.1615,0.1631,0.164,0.1623,0.1624,0.1675,0.1676,0.1677,0.1688,0,0,0,0,0,0,0.1561,0.1566,0.1574,0.1581,0.1585,0.1609,0.1597,0.1597,0.1604,0.1603,0.1611,0.1612,0.1612,0.163,0.1633,0.1642,0.1625,0.1674,0.1675,0.1677,0.1686,0.1689,0.1691,0,0,0,0,0,0.156,0.1577,0.1574,0.1578,0.1595,0.1609,0.1612,0.1611,0.1605,0.1612,0.1615,0.1611,0.1639,0.1631,0.1635,0.1645,0.1673,0.1675,0.1676,0.1685,0.1688,0.1691,0,0,0,0,0,0,0.1571,0.1578,0.1575,0.1595,0.1601,0.1608,0.1618,0.1615,0.1624,0.1623,0.1622,0.1624,0.1641,0.1645,0.1636,0.1664,0.1655,0.1657,0.1661,0.1664,0.1666,0.1664,0.1627,0,0,0,0,0,0.1576,0.1586,0.1592,0.1609,0.1612,0.1614,0.1621,0.162,0.1627,0.163,0.1634,0.1641,0.1651,0.1658,0.1668,0.1687,0.1688,0.1696,0.1698,0.17,0.1701,0.171,0.1713,0.1682,0.1682,0.1682,0,0,0.1585,0.159,0.1597,0.1611,0.1616,0.1626,0.1617,0.1629,0.1637,0.1632,0.1647,0.165,0.1658,0.1676,0.1684,0.1679,0.171,0.1702,0.1703,0.1703,0.1712,0.1715,0.1717,0.1683,0.1683,0.1683,0,0,0.1608,0.1614,0.1627,0.1632,0.164,0.1641,0.1644,0.1651,0.1653,0.1668,0.1664,0.1673,0.1691,0.1696,0.1701,0.1725,0.1721,0.1728,0.1739,0.1748,0.175,0.1752,0.1759,0.1762,0.173,0.173,0.173,0,0.1619,0.1635,0.1634,0.1646,0.1652,0.1647,0.166,0.1666,0.1676,0.168,0.1675,0.1696,0.1701,0.1719,0.1724,0.1729,0.1732,0.1727,0.175,0.1752,0.1754,0.1761,0.1763,0.1731,0.1731,0.173,0.173,0,0.1647,0.1658,0.1668,0.1677,0.1684,0.1697,0.1698,0.1705,0.1703,0.1705,0.172,0.1726,0.1736,0.174,0.174,0.1758,0.1754,0.175,0.1741,0.1758,0.1764,0.1766,0.1732,0.1731,0.1731,0.1731,0,0,0.1676,0.1685,0.1688,0.1692,0.1699,0.1708,0.172,0.1729,0.1734,0.1742,0.1751,0.1766,0.1761,0.1767,0.1767,0.1774,0.179,0.1769,0.1769,0.1771,0.1809,0.1811,0.1814,0.1788,0.1789,0.1789,0.1808,0,0.1698,0.1718,0.1718,0.1737,0.1746,0.1742,0.1752,0.1758,0.176,0.1768,0.177,0.178,0.1774,0.1777,0.1784,0.1787,0.1798,0.1786,0.1796,0.1796,0.1793,0.1818,0.182,0.1838,0.181,0.1811,0.1811,0,0.1726,0.1733,0.1753,0.1758,0.1761,0.1771,0.1778,0.1787,0.1793,0.1793,0.1799,0.1797,0.1809,0.18,0.1815,0.1807,0.1812,0.1813,0.1814,0.1814,0.1804,0.1817,0.1843,0.1845,0.1815,0.1815,0.1814,0,0.1743,0.1758,0.1771,0.1775,0.1781,0.1787,0.179,0.1796,0.1801,0.1808,0.1811,0.182,0.1824,0.1831,0.1831,0.1825,0.1846,0.1838,0.1846,0.1846,0.185,0.1849,0.1876,0.1855,0.1855,0.1855,0.1855,0,0.1766,0.1778,0.1779,0.1786,0.1799,0.1799,0.1811,0.1814,0.1818,0.1826,0.1824,0.1831,0.1832,0.184,0.184,0.1852,0.1854,0.1855,0.1854,0.1854,0.1854,0.1856,0.1854,0.1855,0.1855,0.1855,0.1855,0,0.1787,0.1788,0.1802,0.1807,0.1808,0.1817,0.1821,0.1828,0.183,0.184,0.1842,0.1845,0.1853,0.1855,0.1865,0.1865,0.1879,0.1878,0.1877,0.1876,0.1884,0.1882,0.1912,0.1915,0.1893,0.1893,0.1894,0,0.1801,0.1809,0.1815,0.182,0.1823,0.1831,0.1836,0.1836,0.1841,0.1848,0.1855,0.1863,0.187,0.1884,0.1886,0.1894,0.1893,0.1902,0.1894,0.1893,0.1891,0.189,0.189,0.1904,0.1904,0.1904,0.1904,0,0.1825,0.1825,0.1832,0.1839,0.1845,0.185,0.1856,0.186,0.1861,0.1867,0.1875,0.188,0.1891,0.1899,0.1906,0.1909,0.1906,0.1907,0.1909,0.1908,0.1906,0.1906,0.188,0.1906,0.1906,0.1906,0.1906,0.1906,0.1841,0.1848,0.1853,0.186,0.1864,0.1869,0.1876,0.1878,0.1885,0.1893,0.1893,0.1902,0.1907,0.1917,0.192,0.1927,0.1924,0.1927,0.1928,0.1928,0.1928,0.1906,0.1929,0.1929,0.1929,0.1929,0.1929,0,0.1863,0.1866,0.1873,0.188,0.1886,0.1883,0.1889,0.1894,0.1902,0.1907,0.1913,0.1922,0.193,0.1933,0.1941,0.1946,0.1944,0.1947,0.1946,0.1947,0.1932,0.1928,0.1948,0.1948,0.1948,0.1948,0.1948,0.1948,0.1876,0.1886,0.1887,0.1899,0.1902,0.1911,0.1914,0.1918,0.1922,0.1932,0.1938,0.194,0.1944,0.1952,0.1958,0.1959,0.1961,0.1965,0.1965,0.195,0.1948,0.1946,0.1943,0.1965,0.1965,0.1979,0.1979,0.1979]}]]